Regional Weather Roundup
Issued by NWS

Home | Current Version | Previous Version | Graphics & Text | Print | Product List | Glossary On
Versions: 1 2 3 4 5 6 7 8 9 10 11 12 13 14 15 16 17 18 19 20 21 22 23 24 25 26 27 28 29 30 31 32 33 34 35 36 37 38 39 40 41 42 43 44 45 46 47 48 49 50
000
ASUS44 KMEG 252310
RWRTN
TENNESSEE HOURLY STATE WEATHER ROUNDUP
NATIONAL WEATHER SERVICE MEMPHIS TN
600 PM CDT WED APR 25 2018

TNZ002-004-019-021-049-052-054-088>092-260000-
WEST TENNESSEE

CITY           SKY/WX    TMP DP  RH WIND       PRES   REMARKS
MEMPHIS INTL   CLOUDY    65  45  48 N12       29.98F
NWS MEMPHIS      N/A     64 N/A N/A MISG        N/A
JACKSON        LGT RAIN  55  52  89 W6        30.00F
DYERSBURG      LGT RAIN  59  50  72 SW7       29.99F
SOMERVILLE     MOSUNNY   63  45  51 N8G15     29.96F
COVINGTON      CLOUDY    57  52  82 N5        29.98F
UNION CITY     CLOUDY    64  50  59 W16G29    29.96R
BOLIVAR        PTSUNNY   61  46  59 VRB7G14   29.97F
PARIS          SUNNY     70  50  49 CALM      29.95S
HUNTINGDON     PTSUNNY   68  54  60 SW13G22   29.95R
LEXINGTON      CLOUDY    57  54  88 W10G22    29.99R HAZE
SAVANNAH       MOSUNNY   63  50  63 N8G15     29.96R
$$

TNZ008-025-027-028-033-062-065-066-260000-
NORTH MIDDLE TENNESSEE

CITY           SKY/WX    TMP DP  RH WIND       PRES   REMARKS
NASHVILLE      CLOUDY    68  47  46 N7        29.95F
PORTLAND       MOSUNNY   66  50  55 VRB5      29.94F
CLARKSVILLE    PTSUNNY   67  48  50 NW6       29.94F
SMYRNA         FAIR      67  50  54 N6        29.96S
COOKEVILLE     MOSUNNY   63  48  59 NE6       29.95S
LIVINGSTON     CLEAR     61  48  63 NE3       29.95S
GALLATIN       SUNNY     68  50  52 NW5       29.97F
CROSSVILLE     FAIR      58  46  64 N6        29.97S
$$

TNZ061-075-076-078-094-096-097-260000-
SOUTH MIDDLE TENNESSEE

CITY           SKY/WX    TMP DP  RH WIND       PRES   REMARKS
LEWISBURG      PTCLDY    68  52  56 NE6       29.93F
FAYETTEVILLE   SUNNY     66  50  55 NE8       29.93F
TULLAHOMA      SUNNY     64  48  55 N6        29.94F
WINCHESTER     SUNNY     64  48  55 N8        29.95F
MCMINNVILLE    MOSUNNY   64  50  59 N7        29.95S
COLUMBIA       MOSUNNY   68  48  49 N6        29.92F
SHELBYVILLE    SUNNY     64  52  63 N7        29.95S
$$

TNZ017-018-042-046-047-260000-
NORTHEAST TENNESSEE

CITY           SKY/WX    TMP DP  RH WIND       PRES   REMARKS
TRI CITIES     CLOUDY    61  50  67 W12       29.90R
ELIZABETHTON   CLOUDY    61  50  67 VRB5G13   29.89S
$$

TNZ012-013-036-069-073-074-260000-
CENTRAL EAST TENNESSEE

CITY           SKY/WX    TMP DP  RH WIND       PRES   REMARKS
KNOXVILLE      CLOUDY    60  51  72 NW8       29.94R
OAK RIDGE      CLOUDY    60  51  72 CALM      29.96S
DOWNTOWN KNOXV CLOUDY    61  54  77 VRB5      29.95S
GATLINBURG     CLOUDY    59  52  77 NW10      29.94S
MORRISTOWN     PTSUNNY   57  54  88 NW7       29.94S
JACKSBORO      CLOUDY    57  50  77 VRB5      29.99S
$$

TNZ083-085-099-260000-
SOUTHEAST TENNESSEE

CITY           SKY/WX    TMP DP  RH WIND       PRES   REMARKS
CHATTANOOGA    PTSUNNY   66  49  54 N3        29.94F
DAYTON         MOCLDY    63  55  77 CALM      29.94S
$$

SKY/WX REPORTED AS FAIR MEANS FEW OR NO CLOUDS BELOW
12 THOUSAND FEET.





USA.gov is the U.S. government's official web portal to all federal, state and local government web resources and services.